Regional Weather Roundup
Issued by NWS

Home | Current Version | Previous Version | Graphics & Text | Print | Product List | Glossary On
Versions: 1 2 3 4 5 6 7 8 9 10 11 12 13 14 15 16 17 18 19 20 21 22 23 24 25 26 27 28 29 30 31 32 33 34 35 36 37 38 39 40 41 42 43 44 45 46 47 48 49 50
000
ASUS43 KLSX 200859
RWRMO

WEATHER SUMMARY FOR MISSOURI
NATIONAL WEATHER SERVICE SPRINGFIELD MO
300 AM CST SAT DEC 20 2014

NOTE: "FAIR" INDICATES FEW OR NO CLOUDS BELOW 12,000 FEET WITH NO
       SIGNIFICANT WEATHER AND/OR OBSTRUCTIONS TO VISIBILITY.
       CURRENT SKY AND/OR WEATHER CONDITIONS ARE NOT AVAILABLE FOR
       CHILLICOTHE AND FARMINGTON.

MOZ001>031-035>038-043-044-053-054-201000-
...NORTHERN AND WESTERN MISSOURI...

CITY           SKY/WX    TMP DP  RH WIND       PRES   REMARKS
KANSAS CTY INT CLOUDY    32  31  96 CALM      30.20R FOG
KANSAS C DTWN  CLOUDY    34  31  88 SW6       30.21R WCI  29
LEE`S SUMMIT   CLOUDY    34  32  92 SW7       30.20R WCI  28
ST JOSEPH      CLOUDY    32  29  88 S6        30.20S WCI  26
CHILLICOTHE      N/A     34  33  96 CALM      30.22R
KIRKSVILLE     CLOUDY    32  32 100 S5        30.22R FOG     WCI  27

$$
MOZ066>068-077>081-088>096-101>105-201000-
...SOUTHWEST MISSOURI...

CITY           SKY/WX    TMP DP  RH WIND       PRES   REMARKS
SPRINGFIELD    CLOUDY    37  36  96 S7        30.19S FOG
JOPLIN         CLOUDY    38  37  97 W3        30.22R FOG

$$
MOZ032>034-039>042-045>050-055>058-069>072-201000-
...CENTRAL MISSOURI...

CITY           SKY/WX    TMP DP  RH WIND       PRES   REMARKS
COLUMBIA       CLOUDY    35  33  92 SE5       30.22R FOG
JEFFERSON CITY CLOUDY    37  33  85 SE5       30.24R FOG
ROLLA          CLOUDY    34  32  92 SE5       30.20R FOG     WCI  30
SEDALIA        FOG       37  36  96 SE6       30.21R VSB 1/2
WARRENSBURG    FOG       36  34  93 S3        30.20F VSB 3/4
OSAGE BEACH    CLOUDY    37  34  87 SE3       30.22R

$$
MOZ051-052-059>065-201000-
...EAST CENTRAL MISSOURI...

CITY           SKY/WX    TMP DP  RH WIND       PRES   REMARKS
ST LOUIS INTL  CLOUDY    36  26  67 SE6       30.26S
SPIRIT OF STL  CLOUDY    35  29  78 CALM      30.25S
ST CHARLES     CLOUDY    34  31  88 E5        30.26F FOG     WCI  30

$$
MOZ072>076-082>087-097>100-106>115-201000-
...SOUTH CENTRAL AND SOUTHEAST MISSOURI...

CITY           SKY/WX    TMP DP  RH WIND       PRES   REMARKS
CAPE GIRARDEAU CLOUDY    35  29  78 E3        30.26S
FARMINGTON     CLOUDY    34  32  93 CALM      30.24S
POPLAR BLUFF   CLOUDY    36  32  85 NE5       30.24S
WEST PLAINS    CLOUDY    33  31  92 CALM      30.23R FOG

$$


USA.gov is the U.S. government's official web portal to all federal, state and local government web resources and services.